Home > Weather > Salt Lake City > Past weeks

Flag for U.S.A. Weather for the Past 2 Weeks in Salt Lake City, Utah, U.S.A.

Now
36 °F

Haze.


Feels Like: 36 °F
Forecast: 29 / 43 °F
Wind: No wind

Location: Salt Lake City International Airport

Current Time: Feb 13, 2016 at 5:16:02 PM

Latest Report: Feb 13, 2016 at 3:54 PM


Visibility: 3 mi

Pressure: 30.31 "Hg (25.76 "Hg at 1312m altitude)

Humidity: 75%

Dew point: 29 °F

Location of Salt Lake CityLocation

Historic Weather in Salt Lake City — Graph

°F

Salt Lake City Temperature Yesterday

Maximum temperature yesterday: 34 °F (at 3:54 PM)
Minimum temperature yesterday: 29 °F (at 1:54 AM)
Average temperature yesterday: 30 °F

High & Low Weather Summary for the Past Weeks

 TemperatureHumidityPressure
High47 °F (Jan 29, 11:53 PM)100% (Feb 10, 5:54 AM)30.78 "Hg (Feb 10, 5:54 AM)
Low14 °F (Feb 2, 4:53 AM)45% (Feb 6, 1:53 PM)29.57 "Hg (Feb 1, 1:03 AM)
Average29 °F80%30.36 "Hg
* Reported Jan 29 3:53 PM — Feb 13 3:54 PM, Salt Lake City, Weather by CustomWeather, © 2016

Note: Actual official high and low records may vary slightly from our data, if they occured in-between our weather recording intervals... More about our weather records

Advertising

Salt Lake City Weather History for the Previous 24 Hours

 ConditionsComfort  
Time TempWeatherWind HumidityBarometerVisibility
3:54 PM
Sat, Feb 13
36 °FHaze.No wind75%30.31 "Hg3 mi
2:54 PM32 °FIce fog.3 mph88%30.34 "Hg2 mi
1:54 PM31 °FIce fog.5 mph89%30.38 "Hg2 mi
12:54 PM31 °FIce fog.8 mph89%30.39 "Hg2 mi
11:54 AM31 °FIce fog.5 mph89%30.40 "Hg2 mi
10:54 AM31 °FIce fog.3 mph89%30.40 "Hg2 mi
9:54 AM30 °FIce fog.No wind92%30.39 "Hg1 mi
8:54 AM29 °FIce fog.5 mph96%30.38 "Hg0 mi
7:54 AM29 °FIce fog.5 mph93%30.36 "Hg1 mi
6:54 AM29 °FIce fog.No wind93%30.35 "Hg1 mi
5:54 AM29 °FIce fog.7 mph93%30.35 "Hg1 mi
4:54 AM30 °FIce fog.5 mph89%30.32 "Hg2 mi
3:54 AM29 °FIce fog.3 mph93%30.32 "Hg2 mi
2:54 AM29 °FIce fog.3 mph96%30.34 "Hg2 mi
1:54 AM28 °FIce fog.3 mph96%30.36 "Hg1 mi
12:54 AM29 °FIce fog.6 mph93%30.37 "Hg2 mi
11:54 PM
Fri, Feb 12
29 °FIce fog.5 mph96%30.37 "Hg2 mi
10:54 PM29 °FIce fog.6 mph93%30.38 "Hg2 mi
9:54 PM30 °FIce fog.3 mph92%30.38 "Hg2 mi
8:54 PM30 °FIce fog.No wind92%30.38 "Hg2 mi
7:54 PM30 °FIce fog.No wind92%30.39 "Hg2 mi
6:54 PM30 °FIce fog.3 mph89%30.40 "Hg2 mi
5:54 PM30 °FIce fog.10 mph89%30.41 "Hg2 mi
Weather by CustomWeather, © 2016

See weather overviewHow to use our weather pages